User: anonymous   Login
Location: Hamilton
(37.7830°S, 175.2830°E)
Time: 06:11:11
(UTC+12:00)
Language:

USA 238 DEB - Orbit

View from above orbital plane
View from above orbital plane
View from above satellite
View from above satellite

Ground track
Ground track

The orbit data is extracted from the following two-line orbital elements,

1 38773U 12048P   19111.83169975 0.00000000  00000-0  00000-0 0    07
2 38773  63.4406  26.9418 0084997   1.2660 358.7340 13.40782717    05
Epoch (UTC): 21 April 2019 19:57:38
Eccentricity: 0.0084997
inclination: 63.4406°
perigee height: 1043 km
apogee height: 1170 km
right ascension of ascending node: 26.9418°
argument of perigee: 1.2660°
revolutions per day: 13.40782717
mean anomaly at epoch: 358.7340°
orbit number at epoch: 0

The dashed part of the orbit path shows where the satellite is in the earth's shadow,  

DLR